Tracking 18942 objects as of 17-Jan-2018
HD Live streaming from Space Station
objects crossing your sky now

BREEZE-M R/B

Track BREEZE-M R/B now!


NORAD ID: 37807
Int'l Code: 2011-048B
Perigee: 33,733.2 km
Apogee: 35,688.1 km
Inclination: 4.4 °
Period: 1,381.1 minutes
Semi major axis: 41081 km
RCS: 0.003 m2 (small)
Launch date: September 20, 2011
Source: Commonwealth of Independent States (former USSR) (CIS)
Launch site: TYURATAM MISSILE AND SPACE COMPLEX (TTMTR)

Note: This is a ROCKET BODY
aabbcc
Your satellite tracking list
Your tracking list is empty




NASA's NSSDC Master Catalog

Two Line Element Set (TLE):
1 37807U 11048B   18016.93056506 -.00000121 +00000-0 +00000-0 0  9994
2 37807 004.3528 063.7853 0237931 007.1194 148.0500 01.04263244023579
Source of the keplerian elements: AFSPC